Location: Bernadets
(43.3537°N, 0.3167°E)
Time: 12:59:50
(UTC+00:00)

OE (NEXTSAT) - Pass Details

Date: 24 October 2021
Orbit: 419 x 426 km, 46.0° (Epoch: 08 December)

Event Time Altitude Azimuth Distance (km) Brightness Sun altitude
Rises 17:34:58 0° 247° (WSW) 2,374 10.0 -6.8°
Reaches altitude 10° 17:37:05 10° 246° (WSW) 1,509 8.6 -7.2°
Maximum altitude 17:40:29 79° 160° (SSE) 434 4.3 -7.8°
Enters shadow 17:43:42 11° 73° (ENE) 1,434 6.3 -8.4°
